Regional Weather Roundup
Issued by NWS Upton, NY

Home | Current Version | Previous Version | Text Only | Print | Product List | Glossary On
Versions: 1 2 3 4 5 6 7 8 9 10 11 12 13 14 15 16 17 18 19 20 21 22 23 24 25 26 27
000
ASUS41 KOKX 161308
RWROKX

Regional Weather Roundup
National Weather Service New York NY
800 AM EST TUE JAN 16 2018

Note: "FAIR" indicates few or no clouds below 12,000 feet with no
significant weather and/or obstructions to visibility.

NYZ071-072-176-178-NJZ106-104-161400-
New York City Metro Area

CITY           SKY/WX    TMP DP  RH WIND       PRES   REMARKS
Central Park   CLOUDY    28  23  81 SE5       30.52S WCI  23
Bronx Bot Gard   N/A     27  23  86 E3        30.52S
Bronx Lehman C   N/A     27  23  86 E6          N/A  WCI  20
LaGuardia Arpt CLOUDY    27  22  81 NE8       30.51S WCI  19
Queens College   N/A     28  25  86 NE3         N/A
Kennedy Intl   MOCLDY    27  23  85 NE8       30.53S WCI  19
Breezy Point     N/A    N/A N/A N/A NE6         N/A
Brooklyn Coll    N/A     30  27  86 NE2         N/A
Staten Island    N/A     28  23  80 N2          N/A
Newark/Liberty CLOUDY    27  19  72 NE6       30.51S WCI  20
Teterboro      CLOUDY    27  19  72 NE5       30.51S WCI  22
$$

NYZ177-179-078>081-161400-
Long Island New York

CITY           SKY/WX    TMP DP  RH WIND       PRES   REMARKS
Jones Beach      N/A    N/A N/A N/A NE7         N/A
Wantagh          N/A     28  23  80 N5          N/A  WCI  23
Matinecock Pt    N/A    N/A N/A N/A E5          N/A
Farmingdale    CLOUDY    26  22  84 N5        30.53R WCI  20
MacArthur/ISP  MOCLDY    27  21  78 NW7       30.53R WCI  19
Shirley        MOCLDY    24  22  91 NW6       30.53R WCI  17
Mt Sinai Harb    N/A    N/A N/A N/A N2          N/A
Westhampton    FAIR      18  13  80 N5        30.52F WCI  11
East Hampton   FAIR      20  18  91 CALM      30.51S
Southold         N/A     23  19  86 NE2         N/A
Montauk          N/A     31  25  78 E3        30.52S
$$

NYZ052-065-067-161400-
Hudson Valley

CITY           SKY/WX    TMP DP  RH WIND       PRES   REMARKS
White Plains   MOCLDY    22  17  81 CALM      30.49S
Larchmont Harb   N/A    N/A N/A N/A NE3         N/A
Croton On Huds   N/A    N/A N/A N/A CALM        N/A
Somers           N/A     23  18  80 SE1         N/A
Brewster         N/A     21  18  86 S1          N/A
Newburgh       LGT SNOW  21  21 100 CALM      30.48S FOG
Montgomery     LGT SNOW  22  19  89 CALM      30.47S FOG
Otisville        N/A     21  19  93 E1          N/A
Warwick          N/A     23  19  86 CALM        N/A
Suffern          N/A     23  19  86 SE1         N/A
Poughkeepsie   LGT SNOW  22  18  85 CALM      30.50S FOG
Albany         CLOUDY    18  12  77 CALM      30.48R
$$

NJZ001-105-106-008-010-013-015-019>022-104-161400-
New Jersey

CITY           SKY/WX    TMP DP  RH WIND       PRES   REMARKS
Newark/Liberty CLOUDY    27  19  72 NE6       30.51S WCI  20
Teterboro      CLOUDY    27  19  72 NE5       30.51S WCI  22
Caldwell       CLOUDY    25  18  74 E3        30.51S
Somerville     CLOUDY    26  20  77 CALM      30.49R
Linden         CLOUDY    28  21  74 CALM      30.52R
Perth Amboy      N/A    N/A N/A N/A NE3         N/A
Sussex         CLOUDY    22  19  89 CALM      30.46S FOG
Andover          N/A     22  19  89 CALM      30.45F
Trenton        CLOUDY    27  22  81 E5        30.49S WCI  22
Millville      CLOUDY    30  28  92 CALM      30.49R
Atlantic City  CLOUDY    29  27  92 NW3       30.50R
Wrightstown    CLOUDY    28  23  82 NE3       30.48R
Toms River     CLOUDY    28  25  88 CALM      30.51R
Belmar         CLOUDY    29  27  92 E5        30.51R WCI  24
$$

PAZ047>061-062-071-161400-
Eastern Pennsylvania

CITY           SKY/WX    TMP DP  RH WIND       PRES   REMARKS
Philadelphia   FLURRIES  30  25  81 NE5       30.51R WCI  25
Allentown      LGT SNOW  27  22  81 E5        30.47S WCI  22
Scranton       LGT SNOW  24  23  96 CALM      30.40R FOG
$$

CTZ002-004>006-009-010-012-RIZ004-006-007-MAZ004-011-015-161400-
Southern New England

 In CT

CITY           SKY/WX    TMP DP  RH WIND       PRES   REMARKS
Bradley Intl   CLOUDY    21  10  62 CALM      30.52R
Hartford       CLOUDY   N/A N/A N/A CALM      30.53R
Danbury        LGT SNOW  23  16  74 CALM      30.51S
Wtrbury/Oxford FLURRIES  19  13  77 CALM      30.48S
Norwalk Harbor   N/A    N/A N/A N/A N2          N/A
Bridgeport     CLOUDY    24  13  62 N3        30.54R
Meriden        CLOUDY    21  11  65 CALM      30.53R
New Haven      CLOUDY    23  12  62 N6        30.53R WCI  16
Chester        CLOUDY    21  14  73 CALM      30.50R
Groton         FAIR      21  15  78 NW3       30.52S
Willimantic    MOCLDY    22  15  75 CALM      30.51S

 In RI

CITY           SKY/WX    TMP DP  RH WIND       PRES   REMARKS
Providence     MOCLDY    22  15  75 NE3       30.52S
Block Island   FAIR      30  26  85 E7        30.52R WCI  23
Westerly       FAIR      21  17  84 E3        30.51F

In MA

CITY           SKY/WX    TMP DP  RH WIND       PRES   REMARKS
Boston         FAIR      22  16  78 NE6       30.52F WCI  14
Worcester      FAIR      18   7  62 CALM      30.44S
Westfield      CLOUDY    19  12  74 CALM      30.50R
Provincetown   CLOUDY    30  25  81 NW9       30.54R WCI  22
Nantucket      FAIR      30  27  88 N8        30.51R WCI  22
$$

ANZ330-335-338-340-345-350-353-355-161400-
Coastal Marine Observations


STATION/POSITION TIME  SKY/WX   TEMP    WIND        PRES    VSBY  WAVE
                                AIR SEA DIR/SP/G                  HT/PER
                 (UTC)          (F)     (DEG/KT/KT) (MB)    (MI)  (FT/S)
NY Harb Entrance 1150            30 42   40/  6/ 10 1032.8          5/10
20 S Fire Island 1150            31 39   20/  8/ 10 1032.9          5/ 9
15 E Barnegat Li 1230               42                N/A           6/10
Hudson Canyon    1150            40 53   70/  6/ 10 1031.9          7/10
Kings Point      1230            25 32  110/  4/  5 1034.5
Execution Rocks  NOT AVBL
Western LI Sound NOT AVBL
Central LI Sound 1230            26      70/  4/  6   N/A           1
Robbins Reef     1230            28      70/  3/  5 1033.8
$$


>>>>>>>>>>>>>>>>>>>>>>>>>>>> KEY <<<<<<<<<<<<<<<<<<<<<<<<<<<
>                                                          <
>     SKY/WX - Sky Condition/Present Weather               <
>     TMP    - Temperature in Fahrenheit                   <
>     DP     - Dew Point in Fahrenheit                     <
>     RH     - Relative Humidity in Percent                <
>     WIND   - Direction (from) and Speed in MPH           <
>     PRES   - Mean Sea Level Pressure (inches of Hg)      <
>     WCI    - Wind Chill Index                            <
>     VSB    - Visibility in Miles                         <
>     HX     - Heat Index                                  <
>     TC     - Temperature in Celsius                      <
>     VRB    - Varibale Wind Direction                     <
>                                                          <
>>>>>>>>>>>>>>>>>>>>>>>>>>>> KEY <<<<<<<<<<<<<<<<<<<<<<<<<<<




USA.gov is the U.S. government's official web portal to all federal, state and local government web resources and services.